Flag for Pakistan Weather past 2 weeks in Rawalpindi, Pakistan

Now
55 °F

Sunny.


Feels Like: 53 °F
Forecast: 38 / 60 °F
Wind: 9 mph from Northwest

Location: Islamabad Airport

Current Time: Jan 28, 2015 at 11:46:42 AM

Latest Report: Jan 28, 2015 at 11:00 AM


Visibility: 2 mi

Pressure: 30.12 "Hg

Humidity: 44%

Dew point: 34 °F

Location of RawalpindiLocation

Historic Weather in Rawalpindi — Graph

°F

Rawalpindi temperature yesterday

Maximum temperature yesterday: 59 °F (at 1:00 PM)
Minimum temperature yesterday: 45 °F (at 3:00 AM)
Average temperature yesterday: 50 °F

Past Weeks' High & Low Weather Summary

 TemperatureHumidityPressure
High68 °F (Jan 16, 3:00 PM)100% (Jan 21, 8:00 AM)30.27 "Hg (Jan 21, 8:00 AM)
Low36 °F (Jan 28, 7:00 AM)28% (Jan 17, 4:00 PM)30.01 "Hg (Jan 13, 3:00 PM)
Average52 °F74%30.14 "Hg
* Reported Jan 13 11:00 AM — Jan 28 11:00 AM, Rawalpindi, Weather by CustomWeather, © 2014

Note: Actual official high and low records may vary slightly from our data, if they occured in-between our weather recording intervals... More about our weather records

Advertising

Rawalpindi weather history for previous 24 hours

 ConditionsComfort  
Time TempWeatherWind HumidityBarometerVisibility
11:00 AM
Jan 28
55 °FSunny.9 mph44%30.12 "Hg2 mi
10:00 AM48 °FSunny.No wind71%30.12 "Hg1 mi
9:00 AM41 °FSunny.No wind76%30.12 "Hg2 mi
7:00 AM36 °FFog.No wind81%30.09 "Hg2 mi
6:00 AM37 °FFog.No wind87%30.09 "Hg2 mi
5:00 AM37 °FFog.No wind87%30.09 "Hg2 mi
4:00 AM39 °FFog.No wind87%30.12 "Hg2 mi
2:00 AM41 °FClear.No wind76%30.15 "Hg2 mi
1:00 AM41 °FClear.No wind81%30.18 "Hg2 mi
12:00 AMN/AClear.No windN/A30.18 "Hg3 mi
11:00 PM
Jan 27
45 °FClear.No wind81%30.18 "Hg4 mi
10:00 PM46 °FClear.7 mph71%30.18 "Hg10 mi
9:00 PM48 °FClear.9 mph76%30.18 "Hg10 mi
8:00 PM48 °FClear.9 mph71%30.18 "Hg4 mi
7:00 PM50 °FPassing clouds.7 mph67%30.15 "Hg4 mi
6:00 PM52 °FPassing clouds.14 mph50%30.15 "Hg4 mi
5:00 PM55 °FPassing clouds.16 mph47%30.15 "Hg4 mi
4:00 PM57 °FPassing clouds.21 mph51%30.15 "Hg4 mi
3:00 PM59 °FPassing clouds.18 mph45%30.15 "Hg4 mi
2:00 PM59 °FPassing clouds.18 mph42%30.15 "Hg4 mi
1:00 PM59 °FPassing clouds.N/A51%N/A4 mi
12:00 PM57 °FRefreshingly cool.9 mph59%N/AN/A
11:00 AM54 °FHaze.No wind67%N/A1 mi
Weather by CustomWeather, © 2014

See weather overviewHow to use our weather pages